www.pogodaiklimat.ru

Погода и климат >> Архив погоды >> Пакистан >> Murree


ПОГОДА в Murree

  • Прогноз погоды в Murree
  • Монитор погоды в Murree
  • Климат города

АРХИВ ПОГОДЫ в Murree

Время (UTC), дата Ветер
(напр.,м/с)
 
Видим.   Явления Облачность Т
(С)
Тd
(С)
f
(%)
Тe
(С)
Тes
(С)
Комфортность P
(гПа)
Po
(гПа)
Тmin
(С)
Tmax
(С)
R
(мм)
R24
(мм)
S
(см)
15 11.09 С 1 <100 м 10/10 <50 м
[St]
+19.5 +18.0 91 +23 +23 комфорт 866.0 1000.0
18 11.09 штиль 0 4000 м ясно +18.5 +14.6 78 +19 +19 869.0 1000.0
21 11.09 С 1 4000 м ясно +17.0 +13.8 81 +19 +19 865.0 1000.0
00 12.09 штиль 0 4000 м 5/5 1000 м
[Sc diur, vesp]
+17.0 +13.8 81 +17 +17 855.0 1000.0
03 12.09 штиль 0 <100 м 10/10 <50 м
[St]
+19.0 +17.5 91 +20 +20 860.0 1000.0 +16.1
06 12.09 ЮВ 1 50 м 10/10 <50 м
[St]
+20.0 +18.5 91 +24 +24 комфорт 846.4 1000.0
09 12.09 ЮВ 1 <100 м 10/10 <50 м
[St]
+22.0 +20.6 92 +28 +28 душно 838.0 1000.0
12 12.09 штиль 0 <100 м 10/10 <50 м
[St]
+20.0 +18.5 91 +23 +23 комфорт 842.0 1000.0 +23.1
15 12.09 штиль 0 <100 м 10/10 <50 м
[St]
+19.0 +17.5 91 +20 +20 842.0 1000.0
18 12.09 С 1 4000 м ясно +17.5 +15.1 86 +19 +19 851.0 1000.0
21 12.09 штиль 0 4000 м ясно +17.0 +13.8 81 +17 +17 843.0 921.3
00 13.09 С 2 4000 м гроза, ливневой дождь 10/3 1000 м
[Cb cap As op]
+15.5 +14.7 95 +15 +15 843.2 843.0 14
03 13.09 С 1 10 км {гроза, дождь} 8/5 1000 м
[Sc diur, vesp As op]
+15.5 +13.1 86 +16 +17 844.2 844.0 +14.5 25
06 13.09 ЮВ 1 <100 м 10/10 <50 м
[St]
+20.0 +18.5 91 +25 +25 комфорт 844.0 922.2
09 13.09 С 1 <100 м 10/10 <50 м
[St]
+19.5 +18.0 91 +23 +23 комфорт 844.0 1000.0
12 13.09 ЮВ 1 <100 м 10/10 <50 м
[St]
+20.0 +18.5 91 +25 +25 комфорт 831.0 1000.0 +20.7
15 13.09 С 1 4000 м ясно +18.0 +14.9 82 +20 +20 836.0 1000.0
18 13.09 С 1 4000 м гроза с градом {морось} 10/3 1000 м
[Cb cap As op]
+16.0 +15.2 95 +17 +17 844.3 844.0 6
00 14.09 штиль 0 4000 м ясно +14.5 +10.2 75 +14 +14 844.0 1000.0
03 14.09 С 1 10 км 4/4 1000 м
[Sc diur, vesp]
+17.0 +10.2 64 +19 +21 860.0 1000.0 +12.1
06 14.09 ЮВ 1 10 км 3/3 1000 м
[Sc diur, vesp]
+21.5 +14.5 64 +24 +36 комфорт 870.0 1000.0
09 14.09 ЮВ 1 10 км 3/3 1000 м
[Sc diur, vesp]
+21.0 +15.6 71 +25 +36 комфорт 875.0 1000.0
12 14.09 штиль 0 10 км ясно +19.0 +15.1 78 +20 +22 873.0 1000.0 +22.3
15 14.09 ЮВ 1 4000 м 4/0
[As trans]
+17.0 +12.1 73 +18 +18 880.0 1000.0
18 14.09 ЮВ 1 10 км 9/3 1000 м
[Sc As op]
+16.0 +9.0 63 +17 +17 887.0 1000.0
21 14.09 ЮВ 1 4000 м 9/3 1000 м
[Sc As op]
+15.0 +7.8 62 +16 +16 885.0 1000.0
00 15.09 ЮВ 1 4000 м 8/4 1000 м
[Sc As op]
+14.0 +10.6 80 +14 +14 883.0 1000.0
03 15.09 ЮВ 1 10 км 8/4 1000 м
[Sc diur, vesp As op]
+14.5 +10.2 75 +16 +17 893.0 1000.0 +12.7
06 15.09 ЮВ 1 10 км 9/4 1000 м
[Sc diur, vesp As op]
+17.0 +12.1 73 +18 +21 899.0 1000.0
09 15.09 штиль 0 10 км гроза, ливневой дождь 10/8 600 м
[Cb cap As op]
+13.0 +9.5 79 +13 +13 801.0 1000.0 8
12 15.09 ЮВ 1 10 км 8/1 1000 м
[Sc diur, vesp As op]
+15.0 +11.6 80 +16 +17 768.1 1000.0 +18.3
15 15.09 С 1 4000 м ясно +14.0 +9.6 75 +15 +15 800.0 1000.0
18 15.09 С 2 4000 м ясно +14.5 +9.2 70 +15 +15 896.0 1000.0
21 15.09 С 1 4000 м ясно +14.5 +7.2 62 +15 +15 889.0 1000.0
00 16.09 С 2 4000 м ясно +13.5 +4.8 56 +13 +13 881.8 1000.0
03 16.09 штиль 0 10 км ясно +18.0 +7.2 49 +18 +23 878.0 1000.0 +12.1
06 16.09 ЮВ 1 10 км ясно +21.0 +10.1 50 +24 +41 комфорт 881.0 1000.0
09 16.09 ЮВ 1 10 км 3/3 1000 м
[Sc diur, vesp]
+21.0 +13.0 60 +25 +35 комфорт 875.0 1000.0
12 16.09 штиль 0 10 км ясно +19.0 +10.6 58 +20 +21 871.0 1000.0 +22.1
15 16.09 С 1 4000 м ясно +15.5 +10.4 72 +16 +16 881.0 1000.0
18 16.09 С 1 4000 м ясно +16.0 +10.0 68 +17 +17 879.0 1000.0
21 16.09 С 1 4000 м ясно +15.5 +9.4 67 +17 +17 872.0 1000.0
00 17.09 С 2 4000 м ясно +16.0 -1.2 31 +16 +16 864.0 1000.0
03 17.09 ЮВ 1 10 км ясно +18.5 +3.0 36 +20 +24 867.0 1000.0 +14.5
06 17.09 ЮВ 1 10 км ясно +21.5 +11.7 54 +24 +41 комфорт 874.0 1000.0
12 17.09 штиль 0 10 км ясно +19.0 +11.6 62 +20 +21 846.7 847.0 +22.5
15 17.09 С 1 4000 м ясно +17.5 +7.7 53 +19 +19 871.0 1000.0
18 17.09 С 1 4000 м ясно +17.0 +4.7 44 +18 +18 873.0 1025.6
21 17.09 С 1 4000 м ясно +17.0 +3.4 40 +18 +18 869.0 1000.0
00 18.09 штиль 0 4000 м ясно +16.0 +5.7 50 +16 +16 867.0 1000.0
06 18.09 ЮВ 1 10 км ясно +22.5 +12.0 51 +25 +41 комфорт 874.0 1000.0
09 18.09 ЮВ 1 10 км ясно +22.0 +11.4 51 +24 +38 комфорт 872.0 1000.0
12 18.09 штиль 0 10 км ясно +19.5 +14.8 74 +21 +23 комфорт 846.7 847.0 +23.8

 

Местоположение метеостанции Murree (Пакистан): широта 33.92 долгота 73.38 высота над уровнем моря 2127 м.

В архиве по умолчанию представлена погода в Murree за последнюю неделю. Архивные данные за месяц целиком и за предыдущие месяцы, начиная с января 2011 года, Вы можете получить, выбрав интересующий диапазон дат из раскрывающегося списка и нажав кнопку "Ввод!".


*Определитесь, кто Вы:
робот инопланетянин человек

Внимание! Время в таблицах - всемирное. Для получения местного времени необходимо прибавить поправку, которая в Murree равна 5 ч.

Смотрите также архив погоды в соседних городах и на ближайших метеорологических станциях:

Погода в Kakul (Пакистан) (31 км)
Погода в Islamabad (Пакистан) (42 км)
Погода в Balakor (Пакистан) (51 км)
Погода в Gulmarg (Jammu and Kashmir, Индия) (95 км)
Погода в Kupwara (Jammu and Kashmir, Индия) (105 км)
Погода в Jhelum (Пакистан) (115 км)
Погода в Saidu Sharif (Пакистан) (131 км)
Погода в Risalpur (Пакистан) (131 км)
Погода в Srinagar (Jammu and Kashmir, Индия) (135 км)
Погода в Qazigund (Jammu and Kashmir, Индия) (162 км)

Пояснения к столбцам:

Ветер - указаны скорость ветра в м/с - средняя за 10 мин, порывы в срок и между сроками (в фигурных скобках) и направление, откуда дует ветер: С - северный, СВ - северо-восточный, В - восточный, ЮВ - юго-восточный, Ю - южный, ЮЗ - юго-западный, З - западный, СЗ - северо-западный.
Видимость - горизонтальная дальность видимости в метрах или километрах. При видимости от 1 до 10 км при отсутствии осадков обычно наблюдается дымка, при ухудшении видимости до 1 км и менее - туман. В сухую погоду видимость может ухудшаться дымом, пылью или мглою.
Явления - указаны атмосферные явления, наблюдавшиеся в срок или в последний час перед сроком; фигурными скобками обозначены явления, наблюдавшиеся между сроками (за 1-3 часа до срока); квадратными скобками обозначены град или гололедные отложения с указанием их диаметра в мм.
Облачность - указаны через наклонную черту общая и нижняя облачность в баллах и высота нижней границы облаков в метрах; квадратными скобками обозначены формы облаков: Ci - перистые, Cs - перисто-слоистые, Cc - перисто-кучевые, Ac - высококучевые, As - высокослоистые, Sc - слоисто-кучевые, Ns - слоисто-дождевые, Cu - кучевые, Cb - кучево-дождевые. Подробнее классификацию облаков см. в Атласе облаков (PDF).
T - Температура воздуха - температура, измеренная на высоте 2 м над землей.
Td - Температура точки росы - температура, при понижении до которой содержащийся в воздухе водяной пар достигнет насыщения.
f - Относительная влажность воздуха - влажноcть воздуха, измеренная на высоте 2 м над землей.
Te - Эффективная температура - температура, которую ощущает одетый по сезону человек в тени. Характеристика душности погоды. При расчете учитывается влияние влажности воздуха и скорости ветра на теплоощущения человека.
Tes - Эффективная температура на солнце - температура, которую ощущает человек, с поправкой на солнечный нагрев. Характеристика знойности погоды. Зависит от высоты солнца над горизонтом, облачности и скорости ветра. Ночью, в пасмурную погоду, а также при ветре 12 м/с и более поправка равна нулю.
P - Атмосферное давление - приведенное к уровню моря атмосферное давление.
Po - Атмосферное давление - измеренное на уровне метеостанции атмосферное давление.
Tmin - Минимальная температура - минимум температуры воздуха на высоте 2 м над землей.
Tmax - Максимальная температура - максимум температуры воздуха на высоте 2 м над землей.
R - Количество осадков - Количество выпавших осадков за период времени, мм. При наведении курсора мыши на число - период времени, за который выпало указанное количество осадков.
R24 - Количество осадков - Количество выпавших осадков за 24 часа, мм.
S - Снежный покров - Высота снежного покрова, см. При наведении курсора мыши на число - состояние снежного покрова и степень покрытия местности в баллах.